AAO53 LSGG-LFTZ

Flight info

Callsign AAO53
Flight time 0h 54m
Altitude 19000
Route DEPUL1T/04 DEPUL T544 LSE A6 ROMAM T43 ABDIL
Aircraft PC12/L-SBDGJ1RWYZ/B2L

Departure

Time 2026-04-25 19:25
Airport Geneva International Airport (LSGG)

Arrival

Time 2026-04-25 20:19
Airport La Môle Airport (LFTZ)
Time Latitude Longitude Altitude Speed Heading
2026-04-25 18:51 46.22434 6.09581 1394 ft 0 kts 127°
2026-04-25 19:20 46.22434 6.09582 1394 ft 1 kts 126°
2026-04-25 19:21 46.22417 6.09613 1405 ft 8 kts 126°
2026-04-25 19:21 46.22531 6.09635 1393 ft 20 kts 316°
2026-04-25 19:21 46.22605 6.09470 1402 ft 18 kts 229°
2026-04-25 19:22 46.22551 6.09288 1396 ft 16 kts 267°
2026-04-25 19:22 46.22551 6.09251 1396 ft 0 kts 272°
2026-04-25 19:23 46.22607 6.09163 1398 ft 13 kts 14°
2026-04-25 19:23 46.22658 6.09216 1399 ft 0 kts 46°
2026-04-25 19:24 46.22684 6.09251 1402 ft 24 kts 41°
2026-04-25 19:24 46.22932 6.09619 1394 ft 76 kts 45°
2026-04-25 19:24 46.23945 6.11134 1664 ft 126 kts 49°
2026-04-25 19:25 46.25063 6.12968 2047 ft 163 kts 53°
2026-04-25 19:25 46.25819 6.14301 2270 ft 178 kts 53°
2026-04-25 19:25 46.26620 6.15769 2375 ft 191 kts 53°
2026-04-25 19:26 46.27428 6.17230 2804 ft 188 kts 52°
2026-04-25 19:26 46.28340 6.18635 3011 ft 193 kts 47°
2026-04-25 19:26 46.29281 6.19950 3512 ft 182 kts 46°
2026-04-25 19:26 46.30241 6.21188 3810 ft 190 kts 43°
2026-04-25 19:27 46.31231 6.22440 4193 ft 187 kts 44°
2026-04-25 19:27 46.31888 6.23248 4435 ft 189 kts 43°
2026-04-25 19:27 46.33223 6.24881 5002 ft 186 kts 45°
2026-04-25 19:27 46.34194 6.26135 5381 ft 188 kts 44°
2026-04-25 19:28 46.35198 6.27367 5741 ft 192 kts 37°
2026-04-25 19:28 46.36441 6.28105 6054 ft 200 kts
2026-04-25 19:28 46.37801 6.27630 6410 ft 207 kts 330°
2026-04-25 19:28 46.38731 6.26043 6753 ft 212 kts 291°
2026-04-25 19:29 46.38787 6.23921 6960 ft 220 kts 253°
2026-04-25 19:29 46.37940 6.22115 7258 ft 215 kts 215°
2026-04-25 19:29 46.36624 6.21107 7588 ft 214 kts 203°
2026-04-25 19:29 46.35278 6.20161 7878 ft 217 kts 209°
2026-04-25 19:30 46.33996 6.19002 8187 ft 218 kts 214°
2026-04-25 19:30 46.32789 6.17685 8539 ft 217 kts 219°
2026-04-25 19:30 46.31642 6.16292 8990 ft 213 kts 221°
2026-04-25 19:30 46.30504 6.14913 9382 ft 215 kts 220°
2026-04-25 19:31 46.29308 6.13591 9742 ft 218 kts 216°
2026-04-25 19:31 46.28071 6.12415 10346 ft 205 kts 214°
2026-04-25 19:31 46.26908 6.11299 10983 ft 196 kts 218°
2026-04-25 19:31 46.25886 6.10164 11769 ft 181 kts 219°
2026-04-25 19:32 46.24854 6.09045 12256 ft 187 kts 219°
2026-04-25 19:32 46.23830 6.07934 12910 ft 183 kts 217°
2026-04-25 19:32 46.22766 6.06859 13385 ft 189 kts 218°
2026-04-25 19:32 46.22075 6.06131 13905 ft 181 kts 219°
2026-04-25 19:33 46.20726 6.04696 14561 ft 187 kts 219°
2026-04-25 19:33 46.19678 6.03524 15008 ft 190 kts 221°
2026-04-25 19:33 46.18649 6.02373 15622 ft 186 kts 220°
2026-04-25 19:33 46.17566 6.01309 16080 ft 193 kts 213°
2026-04-25 19:34 46.16483 6.00172 16620 ft 189 kts 226°
2026-04-25 19:34 46.15610 5.98768 17157 ft 188 kts 236°
2026-04-25 19:34 46.14787 5.97271 17608 ft 193 kts 235°
2026-04-25 19:34 46.14044 5.95721 18244 ft 186 kts 243°
2026-04-25 19:35 46.13384 5.94096 18576 ft 196 kts 244°
2026-04-25 19:35 46.12678 5.92350 18955 ft 203 kts 242°
2026-04-25 19:35 46.11927 5.90596 19144 ft 219 kts 242°
2026-04-25 19:35 46.11038 5.88637 19117 ft 242 kts 239°
2026-04-25 19:36 46.10073 5.86564 19133 ft 257 kts 239°
2026-04-25 19:36 46.09061 5.84390 19144 ft 266 kts 239°
2026-04-25 19:36 46.08024 5.82119 19117 ft 273 kts 240°
2026-04-25 19:36 46.07005 5.79801 19110 ft 278 kts 240°
2026-04-25 19:37 46.05962 5.77432 19058 ft 281 kts 240°
2026-04-25 19:37 46.04900 5.75089 19153 ft 279 kts 240°
2026-04-25 19:37 46.03833 5.72740 19108 ft 282 kts 239°
2026-04-25 19:37 46.02609 5.70533 18991 ft 290 kts 222°
2026-04-25 19:38 46.00813 5.69201 19010 ft 293 kts 198°
2026-04-25 19:38 45.98830 5.68576 19093 ft 290 kts 193°
2026-04-25 19:38 45.96822 5.68190 19078 ft 292 kts 186°
2026-04-25 19:38 45.94801 5.67910 19088 ft 291 kts 187°
2026-04-25 19:39 45.92845 5.67661 19061 ft 293 kts 186°
2026-04-25 19:39 45.90820 5.67421 19131 ft 291 kts 186°
2026-04-25 19:39 45.88811 5.67141 19148 ft 291 kts 189°
2026-04-25 19:39 45.86807 5.66639 19065 ft 294 kts 192°
2026-04-25 19:40 45.84808 5.66099 19104 ft 292 kts 192°
2026-04-25 19:40 45.82785 5.65624 19019 ft 295 kts 189°
2026-04-25 19:40 45.80765 5.65301 19090 ft 292 kts 186°
2026-04-25 19:40 45.78739 5.65089 19074 ft 293 kts 184°
2026-04-25 19:41 45.76720 5.64859 19129 ft 290 kts 189°
2026-04-25 19:41 45.74730 5.64441 19170 ft 289 kts 190°
2026-04-25 19:41 45.72771 5.63965 19150 ft 291 kts 192°
2026-04-25 19:41 45.71427 5.63575 19093 ft 293 kts 193°
2026-04-25 19:42 45.68777 5.62851 19107 ft 291 kts 190°
2026-04-25 19:42 45.66780 5.62432 19146 ft 291 kts 188°
2026-04-25 19:42 45.64762 5.62132 19154 ft 291 kts 186°
2026-04-25 19:42 45.62745 5.61944 19219 ft 290 kts 183°
2026-04-25 19:43 45.60736 5.62239 19177 ft 293 kts 168°
2026-04-25 19:43 45.58780 5.63073 19137 ft 294 kts 160°
2026-04-25 19:43 45.56871 5.64120 19158 ft 292 kts 159°
2026-04-25 19:43 45.54947 5.65125 19048 ft 296 kts 162°
2026-04-25 19:44 45.52976 5.65934 19050 ft 295 kts 166°
2026-04-25 19:44 45.50970 5.66573 18935 ft 297 kts 168°
2026-04-25 19:44 45.48946 5.67118 18993 ft 291 kts 172°
2026-04-25 19:44 45.46952 5.67524 19097 ft 289 kts 172°
2026-04-25 19:45 45.44964 5.67996 19101 ft 290 kts 170°
2026-04-25 19:45 45.42976 5.68588 19101 ft 290 kts 168°
2026-04-25 19:45 45.41019 5.69250 19147 ft 290 kts 167°
2026-04-25 19:45 45.39060 5.69932 19153 ft 291 kts 166°
2026-04-25 19:46 45.37094 5.70655 19136 ft 292 kts 166°
2026-04-25 19:46 45.35132 5.71398 19150 ft 292 kts 165°
2026-04-25 19:46 45.33168 5.72167 19130 ft 293 kts 165°
2026-04-25 19:46 45.31200 5.72947 19048 ft 295 kts 165°
2026-04-25 19:47 45.29218 5.73674 19106 ft 291 kts 167°
2026-04-25 19:47 45.27235 5.74287 19077 ft 292 kts 169°
2026-04-25 19:47 45.25245 5.74843 19088 ft 292 kts 169°
2026-04-25 19:47 45.23248 5.75400 19061 ft 293 kts 169°
2026-04-25 19:48 45.21244 5.75984 19012 ft 295 kts 168°
2026-04-25 19:48 45.19251 5.76626 19078 ft 292 kts 167°
2026-04-25 19:48 45.17270 5.77288 19084 ft 294 kts 167°
2026-04-25 19:48 45.15285 5.77977 19137 ft 292 kts 166°
2026-04-25 19:49 45.13302 5.78665 19070 ft 295 kts 167°
2026-04-25 19:49 45.12651 5.78888 19046 ft 296 kts 167°
2026-04-25 19:49 45.09311 5.80028 19125 ft 294 kts 167°
2026-04-25 19:49 45.07348 5.80683 19144 ft 294 kts 167°
2026-04-25 19:50 45.03374 5.82052 19155 ft 293 kts 166°
2026-04-25 19:50 45.01401 5.82786 19144 ft 294 kts 165°
2026-04-25 19:50 44.99423 5.83528 19140 ft 294 kts 165°
2026-04-25 19:51 44.97439 5.84241 19121 ft 295 kts 167°
2026-04-25 19:51 44.95445 5.84906 19147 ft 293 kts 167°
2026-04-25 19:51 44.93459 5.85545 19138 ft 294 kts 168°
2026-04-25 19:51 44.91453 5.86139 19095 ft 295 kts 169°
2026-04-25 19:52 44.89444 5.86699 19127 ft 293 kts 169°
2026-04-25 19:52 44.87442 5.87257 19128 ft 294 kts 169°
2026-04-25 19:52 44.85431 5.87792 19119 ft 294 kts 169°
2026-04-25 19:52 44.83425 5.88400 19095 ft 295 kts 167°
2026-04-25 19:53 44.81426 5.89050 19094 ft 295 kts 167°
2026-04-25 19:53 44.79431 5.89698 19121 ft 293 kts 167°
2026-04-25 19:53 44.77435 5.90318 19100 ft 294 kts 168°
2026-04-25 19:53 44.75440 5.90990 19085 ft 295 kts 166°
2026-04-25 19:54 44.73454 5.91695 19103 ft 294 kts 166°
2026-04-25 19:54 44.71458 5.92333 19113 ft 294 kts 168°
2026-04-25 19:54 44.69458 5.92928 19107 ft 294 kts 167°
2026-04-25 19:54 44.68784 5.93146 19105 ft 294 kts 167°
2026-04-25 19:55 44.66159 5.94073 19098 ft 294 kts 166°
2026-04-25 19:55 44.63511 5.95007 19148 ft 293 kts 166°
2026-04-25 19:55 44.61525 5.95692 19105 ft 296 kts 167°
2026-04-25 19:55 44.59521 5.96352 19074 ft 296 kts 167°
2026-04-25 19:56 44.57520 5.96990 19079 ft 294 kts 167°
2026-04-25 19:56 44.55522 5.97622 19073 ft 295 kts 167°
2026-04-25 19:56 44.53525 5.98259 19097 ft 294 kts 167°
2026-04-25 19:56 44.51526 5.98911 19047 ft 296 kts 167°
2026-04-25 19:57 44.49525 5.99593 19056 ft 295 kts 166°
2026-04-25 19:57 44.47546 6.00313 19095 ft 293 kts 165°
2026-04-25 19:57 44.45563 6.01014 19064 ft 294 kts 167°
2026-04-25 19:57 44.43577 6.01654 19098 ft 292 kts 167°
2026-04-25 19:58 44.41596 6.02272 19082 ft 293 kts 167°
2026-04-25 19:58 44.39599 6.02885 19045 ft 294 kts 168°
2026-04-25 19:58 44.37603 6.03476 19075 ft 292 kts 168°
2026-04-25 19:58 44.35618 6.04056 19083 ft 292 kts 168°
2026-04-25 19:59 44.33629 6.04649 19073 ft 292 kts 168°
2026-04-25 19:59 44.31642 6.05280 19010 ft 294 kts 167°
2026-04-25 19:59 44.29663 6.05973 19062 ft 292 kts 166°
2026-04-25 19:59 44.27696 6.06675 19068 ft 292 kts 165°
2026-04-25 20:00 44.25729 6.07398 19061 ft 293 kts 165°
2026-04-25 20:00 44.25091 6.07638 19069 ft 292 kts 165°
2026-04-25 20:00 44.21794 6.08824 19050 ft 293 kts 168°
2026-04-25 20:00 44.19799 6.09413 19062 ft 293 kts 168°
2026-04-25 20:01 44.15800 6.10562 18935 ft 296 kts 168°
2026-04-25 20:01 44.13777 6.11205 18800 ft 299 kts 166°
2026-04-25 20:01 44.11759 6.11927 18633 ft 300 kts 165°
2026-04-25 20:02 44.09740 6.12675 18487 ft 300 kts 165°
2026-04-25 20:02 44.07740 6.13346 18388 ft 299 kts 167°
2026-04-25 20:02 44.05684 6.13962 18240 ft 298 kts 168°
2026-04-25 20:02 44.03653 6.14539 18103 ft 298 kts 168°
2026-04-25 20:03 44.01628 6.15136 18005 ft 297 kts 167°
2026-04-25 20:03 43.99631 6.15825 17888 ft 296 kts 165°
2026-04-25 20:03 43.97632 6.16591 17655 ft 299 kts 164°
2026-04-25 20:03 43.95618 6.17289 17430 ft 299 kts 167°
2026-04-25 20:04 43.93579 6.17898 17212 ft 299 kts 168°
2026-04-25 20:04 43.91543 6.18476 17039 ft 298 kts 168°
2026-04-25 20:04 43.89544 6.19043 16892 ft 297 kts 167°
2026-04-25 20:04 43.87510 6.19702 16729 ft 296 kts 166°
2026-04-25 20:05 43.85516 6.20395 16580 ft 295 kts 165°
2026-04-25 20:05 43.83555 6.21117 16408 ft 296 kts 164°
2026-04-25 20:05 43.81563 6.21844 16244 ft 296 kts 165°
2026-04-25 20:05 43.79571 6.22542 16113 ft 295 kts 166°
2026-04-25 20:06 43.77580 6.23210 15975 ft 294 kts 167°
2026-04-25 20:06 43.75550 6.23805 15799 ft 295 kts 168°
2026-04-25 20:06 43.73541 6.24335 15565 ft 294 kts 169°
2026-04-25 20:06 43.71525 6.24842 15237 ft 294 kts 169°
2026-04-25 20:07 43.69527 6.25430 14970 ft 292 kts 166°
2026-04-25 20:07 43.67583 6.26068 14738 ft 290 kts 166°
2026-04-25 20:07 43.65633 6.26736 14563 ft 287 kts 165°
2026-04-25 20:07 43.63709 6.27420 14402 ft 285 kts 165°
2026-04-25 20:08 43.61777 6.28123 13997 ft 290 kts 165°
2026-04-25 20:08 43.59807 6.28793 13591 ft 291 kts 166°
2026-04-25 20:08 43.57844 6.29387 13326 ft 287 kts 168°
2026-04-25 20:08 43.55901 6.29921 13116 ft 284 kts 169°
2026-04-25 20:09 43.53969 6.30425 12897 ft 280 kts 168°
2026-04-25 20:09 43.52081 6.30960 12588 ft 276 kts 167°
2026-04-25 20:09 43.50222 6.31556 12287 ft 274 kts 166°
2026-04-25 20:09 43.48385 6.32239 11975 ft 272 kts 163°
2026-04-25 20:10 43.47770 6.32485 11871 ft 272 kts 163°
2026-04-25 20:10 43.44745 6.33614 11315 ft 272 kts 165°
2026-04-25 20:10 43.42919 6.34275 10914 ft 268 kts 165°
2026-04-25 20:10 43.41132 6.34911 10527 ft 263 kts 166°
2026-04-25 20:11 43.39362 6.35524 10109 ft 262 kts 165°
2026-04-25 20:11 43.37627 6.36258 9667 ft 257 kts 159°
2026-04-25 20:11 43.36584 6.36948 9296 ft 238 kts 150°
2026-04-25 20:11 43.34799 6.38621 8390 ft 234 kts 144°
2026-04-25 20:12 43.33925 6.39472 8000 ft 231 kts 146°
2026-04-25 20:12 43.32577 6.40686 7345 ft 230 kts 147°
2026-04-25 20:12 43.31273 6.41926 6858 ft 229 kts 143°
2026-04-25 20:12 43.30425 6.42834 6582 ft 227 kts 141°
2026-04-25 20:13 43.28943 6.44684 5924 ft 205 kts 135°
2026-04-25 20:13 43.27892 6.45992 5243 ft 202 kts 138°
2026-04-25 20:13 43.26908 6.47340 4859 ft 197 kts 134°
2026-04-25 20:13 43.26065 6.48813 4437 ft 195 kts 116°
2026-04-25 20:14 43.25766 6.50606 3868 ft 194 kts 85°
2026-04-25 20:14 43.26173 6.52326 3329 ft 189 kts 57°
2026-04-25 20:14 43.26885 6.53834 2914 ft 187 kts 54°
2026-04-25 20:14 43.27650 6.55284 2572 ft 184 kts 51°
2026-04-25 20:15 43.28379 6.56680 2453 ft 180 kts 54°
2026-04-25 20:15 43.29069 6.58108 2195 ft 178 kts 55°
2026-04-25 20:15 43.29537 6.59658 2012 ft 176 kts 84°
2026-04-25 20:15 43.29166 6.61171 1949 ft 168 kts 138°
2026-04-25 20:16 43.28125 6.61703 1949 ft 160 kts 184°
2026-04-25 20:16 43.27084 6.61203 1979 ft 169 kts 218°
2026-04-25 20:16 43.26309 6.59974 1952 ft 171 kts 243°
2026-04-25 20:16 43.25840 6.58470 1887 ft 172 kts 251°
2026-04-25 20:17 43.25435 6.56920 1809 ft 169 kts 250°
2026-04-25 20:17 43.24937 6.55584 1575 ft 149 kts 237°
2026-04-25 20:17 43.24317 6.54520 1356 ft 140 kts 232°
2026-04-25 20:17 43.23720 6.53576 1167 ft 126 kts 230°
2026-04-25 20:18 43.23130 6.52735 978 ft 122 kts 227°
2026-04-25 20:18 43.22555 6.51927 831 ft 113 kts 229°
2026-04-25 20:18 43.22046 6.51165 652 ft 105 kts 231°
2026-04-25 20:18 43.21555 6.50421 431 ft 104 kts 230°
2026-04-25 20:19 43.21110 6.49620 221 ft 106 kts 241°
2026-04-25 20:19 43.20758 6.48750 70 ft 102 kts 242°
2026-04-25 20:19 43.20480 6.48020 61 ft 59 kts 229°
2026-04-25 20:19 43.20398 6.47822 65 ft 5 kts 241°
2026-04-25 20:20 43.20391 6.47773 65 ft 5 kts 301°
2026-04-25 20:20 43.20410 6.47734 59 ft 4 kts 240°
2026-04-25 20:20 43.20398 6.47688 58 ft 4 kts 270°
2026-04-25 20:20 43.20409 6.47670 60 ft 2 kts 23°
2026-04-25 20:21 43.20410 6.47673 60 ft 0 kts 82°
2026-04-25 20:21 43.20409 6.47675 60 ft 0 kts 144°